TimeEST,TemperatureF,Dew PointF,Humidity,Sea Level PressureIn,VisibilityMPH,Wind Direction,Wind SpeedMPH,Gust SpeedMPH,PrecipitationIn,Events,Conditions,WindDirDegrees,DateUTC
12:58 AM,32.7,32.5,99,30.09,10.0,NNW,4.6,-,N/A,,Overcast,330,2013-12-24 05:58:00
1:58 AM,33.4,33.3,99,30.12,10.0,West,4.6,-,N/A,,Overcast,270,2013-12-24 06:58:00
2:58 AM,33.3,33.1,99,30.12,10.0,WNW,5.8,-,N/A,,Overcast,290,2013-12-24 07:58:00
3:58 AM,32.9,31.6,95,30.09,10.0,WNW,9.2,-,N/A,,Overcast,300,2013-12-24 08:58:00
4:58 AM,31.8,28.8,88,30.11,10.0,West,8.1,-,N/A,,Overcast,280,2013-12-24 09:58:00
5:58 AM,31.3,26.4,82,30.12,10.0,West,4.6,-,N/A,,Overcast,280,2013-12-24 10:58:00
6:58 AM,30.2,25.3,82,30.11,10.0,WNW,6.9,-,N/A,,Overcast,290,2013-12-24 11:58:00
7:58 AM,29.8,23.2,76,30.14,10.0,West,8.1,-,N/A,,Mostly Cloudy,280,2013-12-24 12:58:00
8:58 AM,29.5,22.6,76,30.11,10.0,WNW,8.1,-,N/A,,Mostly Cloudy,300,2013-12-24 13:58:00
9:58 AM,29.5,21.7,73,30.14,10.0,WNW,8.1,-,N/A,,Mostly Cloudy,290,2013-12-24 14:58:00
10:58 AM,29.5,20.3,69,30.11,10.0,WNW,6.9,-,N/A,,Mostly Cloudy,290,2013-12-24 15:58:00
11:58 AM,29.8,19.6,66,30.09,10.0,NW,10.4,-,N/A,,Scattered Clouds,310,2013-12-24 16:58:00
12:58 PM,31.1,17.8,58,30.09,10.0,NW,8.1,-,N/A,,Partly Cloudy,320,2013-12-24 17:58:00
1:58 PM,31.1,16.5,55,30.06,10.0,NW,9.2,-,N/A,,Mostly Cloudy,320,2013-12-24 18:58:00
2:58 PM,31.5,13.8,48,30.06,10.0,WNW,9.2,-,N/A,,Scattered Clouds,300,2013-12-24 19:58:00
3:58 PM,29.8,12.6,49,30.08,10.0,WNW,8.1,-,N/A,,Mostly Cloudy,300,2013-12-24 20:58:00
4:58 PM,27.9,14.7,58,30.10,10.0,WNW,5.8,-,N/A,,Mostly Cloudy,300,2013-12-24 21:58:00
5:58 PM,29.5,12.7,50,30.12,10.0,WNW,8.1,-,N/A,,Overcast,290,2013-12-24 22:58:00
6:58 PM,28.9,12.0,49,30.13,10.0,WNW,9.2,-,N/A,,Mostly Cloudy,300,2013-12-24 23:58:00
7:58 PM,27.9,11.5,50,30.15,10.0,WNW,8.1,-,N/A,,Overcast,300,2013-12-25 00:58:00
8:58 PM,26.6,11.5,53,30.16,10.0,NW,10.4,-,N/A,,Overcast,310,2013-12-25 01:58:00
9:58 PM,25.5,11.8,56,30.17,10.0,WNW,6.9,-,N/A,,Mostly Cloudy,300,2013-12-25 02:58:00
10:58 PM,24.8,10.2,54,30.18,10.0,WNW,12.7,18.4,N/A,,Partly Cloudy,290,2013-12-25 03:58:00
11:58 PM,22.3,10.4,60,30.20,10.0,NW,15.0,26.5,N/A,,Mostly Cloudy,310,2013-12-25 04:58:00